Location: Marcé
(47.5801°N, 0.3280°W)
Time: 20:16:33
(UTC+01:00)

Vanguard 1 - Pass Details

Date: 01 December 2021
Orbit: 652 x 3830 km, 34.2° (Epoch: 16 January)

Event Time Altitude Azimuth Distance (km) Brightness Sun altitude
Rises 22:28:14 0° 186° (S) 7,011 14.3 -51.7°
Enters shadow 22:29:45 - 183° (S) 6,852 14.2 -51.9°
Reaches altitude 10° 22:34:39 10° 172° (S) 6,416 - -52.6°
Maximum altitude 22:48:28 21° 133° (SE) 5,968 - -54.6°
Drops below altitude 10° 23:02:47 10° 94° (E) 6,769 - -56.5°
Sets 23:09:39 0° 81° (E) 7,501 - -57.3°
